This is the latest recevied weather packets stored in our database for station/object EA1CUE-WX. If no packets are shown the sender has not sent any weather packets the latest 10 day(s).
| Time | Temp. | Humidity | Pressure | Rain* | Wind** | Luminosity | Snow |
|---|---|---|---|---|---|---|---|
| 1778065726 | 12.78° C | 41% | 1013.1 hPa | 0 mm | - | - | - |
| 1778065426 | 12.22° C | 42% | 1013.1 hPa | 0 mm | - | - | - |
| 1778065126 | 12.22° C | 46% | 1013.1 hPa | 0 mm | - | - | - |
| 1778064826 | 12.22° C | 43% | 1013.1 hPa | 0 mm | - | - | - |
| 1778064526 | 11.67° C | 45% | 1013.1 hPa | 0 mm | - | - | - |
| 1778064226 | 11.67° C | 43% | 1013.1 hPa | 0 mm | - | - | - |
| 1778063926 | 11.11° C | 43% | 1013.2 hPa | 0 mm | - | - | - |
| 1778063626 | 11.67° C | 40% | 1013.3 hPa | 0 mm | - | - | - |
| 1778063326 | 11.67° C | 40% | 1013.2 hPa | 0 mm | - | - | - |
| 1778063026 | 11.67° C | 36% | 1013.2 hPa | 0 mm | - | - | - |
| 1778062726 | 11.67° C | 41% | 1013.2 hPa | 0 mm | - | - | - |
| 1778062426 | 12.22° C | 39% | 1013.2 hPa | 0 mm | - | - | - |
| 1778062126 | 12.22° C | 42% | 1013.2 hPa | 0 mm | - | - | - |
| 1778061826 | 12.22° C | 43% | 1013.2 hPa | 0 mm | - | - | - |
| 1778061526 | 12.78° C | 29% | 1013.3 hPa | 0 mm | - | - | - |
| 1778061226 | 12.22° C | 19% | 1013.3 hPa | 0 mm | - | - | - |
| 1778060926 | 11.67° C | 29% | 1013.3 hPa | 0 mm | - | - | - |
| 1778060626 | 11.11° C | 23% | 1013.3 hPa | 0 mm | - | - | - |
| 1778060326 | 10.56° C | 22% | 1013.2 hPa | 0 mm | - | - | - |
| 1778060026 | 10.56° C | 25% | 1013.3 hPa | 0 mm | - | - | - |
| 1778059726 | 11.11° C | 19% | 1013.2 hPa | 0 mm | - | - | - |
| 1778059426 | 10.56° C | 17% | 1013.3 hPa | 0 mm | - | - | - |
| 1778059126 | 10° C | 8% | 1013.1 hPa | 0 mm | - | - | - |
| 1778058826 | 10° C | 7% | 1013.1 hPa | 0 mm | - | - | - |
| 1778058526 | 10° C | 14% | 1013.1 hPa | 0 mm | - | - | - |
* Rain latest hour (hover to see other rain measurements)
** Current wind speed in m/s (hover to see current wind gust speed)